Date String (YYYY-MM-DD hh:mm:ss) UTC,Instrument flags,Ambient pressure (hPa),Sample flow (lpm),Bypass flow (lpm),Sample temperature (°C),Ambient temperature (°C),ASC tube jacket temperature (°C),LED temperature (°C),Box temperature (°C),Sample RH (%),Span deviation,Mass concentration (μg/m³),Mass concentration (μg/m³),Mass concentration (μg/m³)
DateTimeUTC,F1_M11,P_M11,Q1_M11,Q2_M11,T1_M11,T2_M11,T3_M11,T4_M11,T5_M11,U1_M11,ZSPAN_M11,X0_M11,X2_M11,X1_M11
2022-08-16 05:00:00,,0831.2,5.00,0.00,30.8,29.0,00.0,39.3,32.3,34.2,0000.0,0004.87,0003.24,0002.96
2022-08-16 05:01:00,,0831.2,4.99,0.00,30.8,29.1,00.0,39.3,32.3,34.5,0000.0,0004.80,0003.25,0002.98
2022-08-16 05:02:00,,0831.2,5.00,0.00,30.8,29.1,00.0,39.3,32.3,35.4,0000.0,0004.82,0003.27,0003.00
2022-08-16 05:03:00,,0831.2,5.00,0.00,31.0,29.1,00.0,39.4,32.4,35.4,0000.0,0004.86,0003.30,0003.03
2022-08-16 05:04:00,,0831.2,4.99,0.00,31.3,29.2,00.0,39.4,32.6,34.6,0000.0,0005.06,0003.34,0003.05
2022-08-16 05:05:00,,0831.2,5.00,0.00,31.6,29.2,00.0,39.4,32.6,34.1,0000.0,0005.26,0003.39,0003.09
2022-08-16 05:06:00,,0831.2,5.01,0.00,31.7,29.1,00.0,39.5,32.5,33.9,0000.0,0005.37,0003.43,0003.12
2022-08-16 05:07:00,,0831.2,4.99,0.00,31.7,28.5,00.0,39.5,32.3,33.6,0000.0,0005.57,0003.47,0003.13
2022-08-16 05:08:00,,0831.2,5.00,0.00,31.6,28.0,00.0,39.5,32.2,33.8,0000.0,0005.49,0003.50,0003.15
2022-08-16 05:09:00,,0831.2,5.01,0.00,31.5,27.9,00.0,39.5,32.1,33.7,0000.0,0005.35,0003.54,0003.17
2022-08-16 05:10:00,,0831.2,4.99,0.00,31.4,27.9,00.0,39.5,32.1,33.9,0000.0,0005.45,0003.57,0003.19
2022-08-16 05:11:00,,0831.2,5.01,0.00,31.3,28.0,00.0,39.5,32.0,34.0,0000.0,0005.66,0003.63,0003.21
2022-08-16 05:12:00,,0831.2,4.99,0.00,31.3,28.2,00.0,39.6,32.1,34.1,0000.0,0006.04,0003.71,0003.23
2022-08-16 05:13:00,,0831.2,5.00,0.00,31.2,28.3,00.0,39.6,32.1,34.2,0000.0,0006.17,0003.72,0003.24
2022-08-16 05:14:00,,0831.2,5.00,0.00,31.2,28.4,00.0,39.6,32.1,34.3,0000.0,0006.84,0003.74,0003.26
2022-08-16 05:15:00,,0831.2,5.00,0.00,31.2,28.5,00.0,39.6,32.1,34.5,0000.0,0007.19,0003.76,0003.28
2022-08-16 05:16:00,,0831.2,5.00,0.00,31.1,28.6,00.0,39.6,32.1,34.7,0000.0,0007.12,0003.75,0003.29
2022-08-16 05:17:00,,0831.2,5.00,0.00,31.1,28.7,00.0,39.6,32.2,34.7,0000.0,0007.22,0003.78,0003.31
2022-08-16 05:18:00,,0831.2,5.00,0.00,31.1,28.8,00.0,39.6,32.2,34.9,0000.0,0007.22,0003.82,0003.34
2022-08-16 05:19:00,,0831.2,4.99,0.00,31.1,28.9,00.0,39.6,32.2,35.0,0000.0,0007.40,0003.88,0003.35
2022-08-16 05:20:00,,0831.2,4.99,0.00,31.1,28.9,00.0,39.6,32.3,34.9,0000.0,0007.43,0003.88,0003.35
2022-08-16 05:21:00,,0831.2,5.00,0.00,31.2,29.0,00.0,39.6,32.4,34.6,0000.0,0007.91,0003.88,0003.35
2022-08-16 05:22:00,,0831.2,5.00,0.00,31.3,29.1,00.0,39.6,32.4,34.5,0000.0,0007.91,0003.86,0003.34
2022-08-16 05:23:00,,0831.2,5.00,0.00,31.3,29.1,00.0,39.6,32.4,34.6,0000.0,0007.83,0003.84,0003.33
2022-08-16 05:24:00,,0831.2,5.00,0.00,31.3,29.1,00.0,39.6,32.4,34.9,0000.0,0007.92,0003.84,0003.32
2022-08-16 05:25:00,,0831.3,5.00,0.00,31.3,29.2,00.0,39.6,32.4,35.2,0000.0,0007.99,0003.82,0003.31
2022-08-16 05:26:00,,0831.2,5.00,0.00,31.5,29.2,00.0,39.7,32.6,35.7,0000.0,0007.70,0003.78,0003.29
2022-08-16 05:27:00,,0831.2,5.00,0.00,31.8,29.2,00.0,39.7,32.7,35.5,0000.0,0007.76,0003.77,0003.28
2022-08-16 05:28:00,,0831.2,5.01,0.00,32.1,28.7,00.0,39.7,32.7,34.6,0000.0,0007.73,0003.74,0003.24
2022-08-16 05:29:00,,0831.2,5.00,0.00,32.3,28.2,00.0,39.6,32.6,34.1,0000.0,0007.67,0003.69,0003.21
2022-08-16 05:30:00,,0831.2,5.00,0.00,32.3,28.0,00.0,39.7,32.4,33.7,0000.0,0007.58,0003.64,0003.20
2022-08-16 05:31:00,,0831.2,5.01,0.00,32.2,28.0,00.0,39.7,32.3,33.9,0000.0,0007.48,0003.61,0003.19
2022-08-16 05:32:00,,0831.2,4.99,0.00,32.2,28.0,00.0,39.8,32.3,34.0,0000.0,0006.91,0003.62,0003.18
2022-08-16 05:33:00,,0831.3,5.01,0.00,32.1,28.2,00.0,39.9,32.3,34.0,0000.0,0006.86,0003.63,0003.18
2022-08-16 05:34:00,,0831.3,5.00,0.00,32.0,28.3,00.0,39.9,32.3,34.2,0000.0,0007.08,0003.65,0003.18
2022-08-16 05:35:00,,0831.3,5.00,0.00,32.0,28.4,00.0,39.9,32.3,34.7,0000.0,0007.32,0003.66,0003.18
2022-08-16 05:36:00,,0831.3,5.01,0.00,31.9,28.5,00.0,40.0,32.3,34.8,0000.0,0007.17,0003.66,0003.17
2022-08-16 05:37:00,,0831.3,5.01,0.00,31.9,28.6,00.0,40.0,32.4,35.0,0000.0,0007.35,0003.71,0003.18
2022-08-16 05:38:00,,0831.3,5.00,0.00,31.9,28.7,00.0,40.0,32.4,34.6,0000.0,0007.43,0003.74,0003.18
2022-08-16 05:39:00,,0831.2,4.99,0.00,31.9,28.8,00.0,40.0,32.5,34.5,0000.0,0007.46,0003.75,0003.18
2022-08-16 05:40:00,,0831.3,5.00,0.00,31.9,28.9,00.0,40.0,32.5,34.2,0000.0,0007.49,0003.73,0003.18
2022-08-16 05:41:00,,0831.2,5.00,0.00,31.9,29.0,00.0,40.0,32.5,34.2,0000.0,0007.88,0003.73,0003.17
2022-08-16 05:42:00,,0831.2,4.99,0.00,31.9,29.0,00.0,40.1,32.5,34.1,0000.0,0008.08,0003.75,0003.16
2022-08-16 05:43:00,,0831.2,4.99,0.00,31.9,29.1,00.0,40.1,32.5,33.9,0000.0,0008.23,0003.77,0003.15
2022-08-16 05:44:00,,0831.2,4.99,0.00,31.8,29.1,00.0,40.1,32.5,33.9,0000.0,0008.21,0003.76,0003.14
2022-08-16 05:45:00,,0831.2,4.99,0.00,31.8,29.2,00.0,40.1,32.6,34.0,0000.0,0008.63,0003.71,0003.12
2022-08-16 05:46:00,,0831.2,5.01,0.00,31.8,29.2,00.0,40.1,32.6,34.2,0000.0,0008.50,0003.69,0003.12
2022-08-16 05:47:00,,0831.2,5.01,0.00,31.7,29.3,00.0,40.1,32.6,34.5,0000.0,0008.52,0003.70,0003.10
2022-08-16 05:48:00,,0831.2,5.00,0.00,31.7,29.0,00.0,40.0,32.5,34.4,0000.0,0008.48,0003.65,0003.07
2022-08-16 05:49:00,,0831.2,4.99,0.00,31.6,28.3,00.0,40.0,32.3,34.5,0000.0,0008.57,0003.61,0003.06
2022-08-16 05:50:00,,0831.2,5.01,0.00,31.5,28.0,00.0,39.9,32.2,35.2,0000.0,0008.78,0003.61,0003.06
2022-08-16 05:51:00,,0831.2,5.00,0.00,31.5,28.0,00.0,39.9,32.2,35.4,0000.0,0008.77,0003.61,0003.06
2022-08-16 05:52:00,,0831.2,5.00,0.00,31.8,28.0,00.0,39.9,32.4,35.0,0000.0,0008.48,0003.61,0003.03
2022-08-16 05:53:00,,0831.2,5.00,0.00,32.0,28.1,00.0,39.9,32.5,34.5,0000.0,0008.19,0003.57,0002.99
2022-08-16 05:54:00,,0831.2,5.01,0.00,32.1,28.2,00.0,39.9,32.5,34.0,0000.0,0007.84,0003.49,0002.95
2022-08-16 05:55:00,,0831.3,4.99,0.00,32.1,28.4,00.0,39.9,32.5,33.9,0000.0,0007.83,0003.48,0002.92
2022-08-16 05:56:00,,0831.3,4.99,0.00,32.1,28.5,00.0,39.9,32.4,34.0,0000.0,0007.45,0003.48,0002.89
2022-08-16 05:57:00,,0831.3,5.01,0.00,32.1,28.6,00.0,40.0,32.4,34.3,0000.0,0007.55,0003.45,0002.85
2022-08-16 05:58:00,,0831.3,5.00,0.00,32.0,28.7,00.0,40.0,32.4,34.4,0000.0,0007.46,0003.42,0002.82
2022-08-16 05:59:00,,0831.3,5.00,0.00,32.0,28.8,00.0,40.0,32.4,34.6,0000.0,0007.74,0003.47,0002.80
